Seward, AK

1:07 PM AKST on December 06, 2016 (GMT -0900)
Seward

Weather History for PAWD - October, 2011

Change the Weather History Date:

Monday, October 3, 2011

  Actual Average Record
Temperature  
Mean Temperature 42 °F -  
Max Temperature 50 °F 48 °F 61 °F (1967)
Min Temperature 35 °F 38 °F 27 °F (1998)
Degree Days  
Heating Degree Days 22    
Moisture  
Dew Point 36 °F    
Average Humidity 86    
Maximum Humidity 100    
Minimum Humidity 54    
Precipitation  
Precipitation 0.15 in - - ()
Sea Level Pressure  
Sea Level Pressure 29.48 in    
Wind  
Wind Speed 3 mph (North)    
Max Wind Speed 12 mph    
Max Gust Speed 17 mph    
Visibility 10 miles    
Events Rain    
Averages and records for this station are not official NWS values.
T = Trace of Precipitation, MM = Missing Value Source: NWS Daily Summary

Daily Weather History Graph

Daily Weather History Graph

Search for Another Location

Airport or City:

Trip Planner

Search our weather history database for the weather conditions in past years. The results will help you decide how hot, cold, wet, or windy it might be!

Date:

Astronomy

Oct. 03, 2011 Rise Set
Actual Time 8:08 AM AKDT 7:24 PM AKDT
Civil Twilight 7:26 AM AKDT 8:05 PM AKDT
Nautical Twilight 6:37 AM AKDT 8:54 PM AKDT
Astronomical Twilight 5:46 AM AKDT 9:44 PM AKDT
Moon 4:39 PM AKDT (10/3) 11:15 PM AKDT (10/3)
Length of Visible Light 12h 39m
Length of Day
11h 16m
Waxing Crescent, 47% of the Moon is Illuminated
Oct 3
Waxing Crescent
Oct 3
First Quarter
Oct 11
Full
Oct 19
Last Quarter
Oct 26
New

Hourly Weather History & Observations

Time (AKDT) Temp. Windchill Dew Point Humidity Pressure Visibility Wind Dir Wind Speed Gust Speed Precip Events Conditions
12:17 AM 37.4 °F 34.9 °F 37.4 °F 100% 29.55 in 9.0 mi North 3.5 mph - 0.02 in Rain Light Rain
12:24 AM 37.4 °F - 35.6 °F 93% 29.55 in 7.0 mi Calm Calm - 0.02 in Rain Light Rain
12:53 AM 37.9 °F - 37.9 °F 100% 29.55 in 7.0 mi Calm Calm - 0.03 in Rain Light Rain
1:07 AM 37.4 °F - 37.4 °F 100% 29.55 in 7.0 mi Calm Calm - 0.02 in Rain Light Rain
1:42 AM 37.4 °F - 37.4 °F 100% 29.55 in 9.0 mi Calm Calm - 0.06 in Rain Light Rain
1:53 AM 37.9 °F - 37.9 °F 100% 29.55 in 10.0 mi Calm Calm - 0.06 in Rain Light Rain
2:53 AM 37.0 °F 31.6 °F 37.0 °F 100% 29.52 in 10.0 mi North 6.9 mph - 0.02 in   Mostly Cloudy
3:53 AM 37.0 °F 34.5 °F 37.0 °F 100% 29.52 in 10.0 mi ENE 3.5 mph - 0.01 in Rain Light Rain
4:53 AM 37.0 °F - 37.0 °F 100% 29.50 in 10.0 mi Calm Calm - 0.00 in   Overcast
5:53 AM 37.0 °F 34.5 °F 37.0 °F 100% 29.49 in 10.0 mi NW 3.5 mph - 0.03 in Rain Light Rain
6:53 AM 36.0 °F 33.3 °F 36.0 °F 100% 29.47 in 10.0 mi NNW 3.5 mph - 0.00 in   Overcast
7:53 AM 36.0 °F - 36.0 °F 100% 29.46 in 10.0 mi Calm Calm - N/A   Overcast
8:53 AM 35.1 °F 31.0 °F 35.1 °F 100% 29.45 in 10.0 mi North 4.6 mph - N/A   Mostly Cloudy
9:53 AM 37.9 °F - 37.9 °F 100% 29.45 in 10.0 mi Calm Calm - N/A   Mostly Cloudy
10:53 AM 41.0 °F - 39.9 °F 96% 29.44 in 10.0 mi Calm Calm - N/A   Scattered Clouds
11:53 AM 45.0 °F 42.6 °F 39.0 °F 80% 29.44 in 10.0 mi NE 4.6 mph - N/A   Clear
12:53 PM 48.9 °F - 35.1 °F 59% 29.43 in 10.0 mi Variable 4.6 mph 17.3 mph N/A   Clear
1:53 PM 48.9 °F - 34.0 °F 56% 29.42 in 10.0 mi North 11.5 mph 17.3 mph N/A   Clear
2:53 PM 50.0 °F - 34.0 °F 54% 29.42 in 10.0 mi North 9.2 mph - N/A   Clear
3:53 PM 48.9 °F - 36.0 °F 61% 29.42 in 10.0 mi NE 4.6 mph - N/A   Clear
5:53 PM 46.0 °F 43.9 °F 34.0 °F 63% 29.42 in 10.0 mi NNE 4.6 mph - N/A   Clear
6:53 PM 43.0 °F 38.8 °F 34.0 °F 71% 29.42 in 10.0 mi North 6.9 mph - N/A   Clear
7:53 PM 41.0 °F 36.4 °F 33.1 °F 73% 29.44 in 10.0 mi NE 6.9 mph - N/A   Clear
8:53 PM 37.9 °F 35.5 °F 32.0 °F 79% 29.45 in 10.0 mi NNW 3.5 mph - N/A   Clear
9:53 PM 36.0 °F - 32.0 °F 86% 29.46 in 10.0 mi Calm Calm - N/A   Clear
10:53 PM 37.0 °F 33.3 °F 32.0 °F 82% 29.47 in 10.0 mi NNE 4.6 mph - N/A   Clear
11:53 PM 37.0 °F 31.0 °F 32.0 °F 82% 29.48 in 10.0 mi North 8.1 mph - N/A   Clear